Find Starlink 6067

NORAD ID: 56816 Int'l Des: 2023-078 Owner: SPXS Country: US Constellation: starlink operational
LEOCIRCULAR

当前视图

正在加载3D地球...

关于 Starlink 6067

正在加载描述...

即将过境

Passes for default location (London). Set your location on the main map for personalized predictions.

高度历史

Loading altitude history...

两行轨道根数

1 56816U 23078BB 26150.03836826 -.00000148 00000-0 -45870-5 0 9990
2 56816 69.9991 119.1503 0003606 261.5767 98.4983 14.98329861165363
Epoch: May 30, 2026 • Age: 11 hours

当前状态

高度 575.0 km
速度 7.57 km/s
星下点 16.81°N, 52.98°E
发射日期 May 31, 2023
运行时间 2.9 years
类型 internet

技术详情

分类 Payload
质量 305.00 kg
干质量 290.00 kg
总质量 305.00 kg
长度 0.20 m
直径 2.80 m
跨度 9.00 m
形状 Box + pan
制造商 SPXS
平台类型 Starlink
阶段状态 In Orbit
所有者/国家 SPXS/US

Most Searched